This is the latest recevied weather packets stored in our database for station/object KC4KQE. If no packets are shown the sender has not sent any weather packets the latest 10 day(s).
| Time | Temp. | Humidity | Pressure | Rain* | Wind** | Luminosity | Snow |
|---|---|---|---|---|---|---|---|
| 1778082557 | 19.44° C | 36% | 1016.4 hPa | 0 mm | - | 561 W/m² | - |
| 1778082257 | 20° C | 36% | 1016.4 hPa | 0 mm | - | 550 W/m² | - |
| 1778081956 | 19.44° C | 37% | 1016.4 hPa | 0 mm | - | 531 W/m² | - |
| 1778081656 | 19.44° C | 37% | 1016.4 hPa | 0 mm | - | 513 W/m² | - |
| 1778081356 | 19.44° C | 38% | 1016.4 hPa | 0 mm | - | 499 W/m² | - |
| 1778081057 | 18.89° C | 37% | 1016.4 hPa | 0 mm | - | 482 W/m² | - |
| 1778080756 | 18.89° C | 37% | 1016.4 hPa | 0 mm | - | 468 W/m² | - |
| 1778080456 | 18.89° C | 38% | 1016.4 hPa | 0 mm | - | 446 W/m² | - |
| 1778080157 | 18.33° C | 39% | 1016.4 hPa | 0 mm | - | 432 W/m² | - |
| 1778079857 | 18.33° C | 40% | 1016.4 hPa | 0 mm | - | 415 W/m² | - |
| 1778079557 | 18.33° C | 40% | 1016.3 hPa | 0 mm | - | 399 W/m² | - |
| 1778079257 | 18.33° C | 40% | 1016.3 hPa | 0 mm | - | 380 W/m² | - |
| 1778078957 | 18.33° C | 40% | 1016.3 hPa | 0 mm | - | 364 W/m² | - |
| 1778078657 | 17.78° C | 40% | 1016.3 hPa | 0 mm | - | 345 W/m² | - |
| 1778078356 | 17.78° C | 40% | 1016.2 hPa | 0 mm | - | 329 W/m² | - |
| 1778078056 | 17.78° C | 41% | 1016.2 hPa | 0 mm | - | 313 W/m² | - |
| 1778077756 | 17.78° C | 41% | 1016.1 hPa | 0 mm | - | 294 W/m² | - |
| 1778077457 | 17.22° C | 42% | 1016.1 hPa | 0 mm | - | 278 W/m² | - |
| 1778077157 | 17.22° C | 43% | 1016.1 hPa | 0 mm | - | 253 W/m² | - |
| 1778076856 | 17.22° C | 44% | 1016.1 hPa | 0 mm | - | 243 W/m² | - |
| 1778076556 | 16.67° C | 45% | 1016.1 hPa | 0 mm | - | 225 W/m² | - |
| 1778076256 | 16.67° C | 46% | 1015.9 hPa | 0 mm | - | 209 W/m² | - |
| 1778075956 | 16.11° C | 48% | 1016 hPa | 0 mm | - | 192 W/m² | - |
| 1778075656 | 15.56° C | 51% | 1015.9 hPa | 0 mm | - | 176 W/m² | - |
| 1778075357 | 15° C | 56% | 1015.8 hPa | 0 mm | - | 158 W/m² | - |
* Rain latest hour (hover to see other rain measurements)
** Current wind speed in m/s (hover to see current wind gust speed)